Year,Month,Day,Hour,Minute,Value (Times are PST for temperature in C)
2017,02,11,00,00,1.10
2017,02,11,00,01,1.20
2017,02,11,00,02,1.20
2017,02,11,00,03,1.30
2017,02,11,00,04,1.30
2017,02,11,00,05,1.20
2017,02,11,00,06,1.10
2017,02,11,00,07,1.10
2017,02,11,00,08,1.10
2017,02,11,00,09,1.00
2017,02,11,00,10,1.00
2017,02,11,00,11,1.00
2017,02,11,00,12,1.00
2017,02,11,00,13,1.10
2017,02,11,00,14,1.10
2017,02,11,00,15,1.00
2017,02,11,00,16,1.00
2017,02,11,00,17,1.00
2017,02,11,00,18,0.90
2017,02,11,00,19,0.90
2017,02,11,00,20,0.90
2017,02,11,00,21,0.90
2017,02,11,00,22,0.90
2017,02,11,00,23,0.90
2017,02,11,00,24,0.80
2017,02,11,00,25,0.80
2017,02,11,00,26,0.80
2017,02,11,00,27,0.90
2017,02,11,00,28,1.00
2017,02,11,00,29,1.10
2017,02,11,00,30,1.10
2017,02,11,00,31,1.20
2017,02,11,00,32,1.20
2017,02,11,00,33,1.20
2017,02,11,00,34,1.10
2017,02,11,00,35,1.10
2017,02,11,00,36,1.20
2017,02,11,00,37,1.30
2017,02,11,00,38,1.30
2017,02,11,00,39,1.50
2017,02,11,00,40,1.70
2017,02,11,00,41,1.90
2017,02,11,00,42,2.10
2017,02,11,00,43,2.20
2017,02,11,00,44,2.20
2017,02,11,00,45,2.10
2017,02,11,00,46,2.10
2017,02,11,00,47,2.20
2017,02,11,00,48,2.20
2017,02,11,00,49,2.20
2017,02,11,00,50,2.20
2017,02,11,00,51,2.10
2017,02,11,00,52,2.10
2017,02,11,00,53,2.10
2017,02,11,00,54,2.00
2017,02,11,00,55,2.00
2017,02,11,00,56,2.00
2017,02,11,00,57,2.00
2017,02,11,00,58,2.10
2017,02,11,00,59,2.10
2017,02,11,01,00,2.10
2017,02,11,01,01,2.10
2017,02,11,01,02,2.00
2017,02,11,01,03,2.00
2017,02,11,01,04,1.90
2017,02,11,01,05,1.90
2017,02,11,01,06,1.90
2017,02,11,01,07,1.90
2017,02,11,01,08,1.80
2017,02,11,01,09,1.70
2017,02,11,01,10,1.70
2017,02,11,01,11,1.60
2017,02,11,01,12,1.50
2017,02,11,01,13,1.40
2017,02,11,01,14,1.40
2017,02,11,01,15,1.30
2017,02,11,01,16,1.30
2017,02,11,01,17,1.20
2017,02,11,01,18,1.20
2017,02,11,01,19,1.20
2017,02,11,01,20,1.10
2017,02,11,01,21,1.10
2017,02,11,01,22,1.10
2017,02,11,01,23,1.10
2017,02,11,01,24,1.10
2017,02,11,01,25,1.10
2017,02,11,01,26,1.10
2017,02,11,01,27,1.10
2017,02,11,01,28,1.10
2017,02,11,01,29,1.10
2017,02,11,01,30,1.10
2017,02,11,01,31,1.10
2017,02,11,01,32,1.10
2017,02,11,01,33,1.10
2017,02,11,01,34,1.20
2017,02,11,01,35,1.20
2017,02,11,01,36,1.20
2017,02,11,01,37,1.30
2017,02,11,01,38,1.30
2017,02,11,01,39,1.40
2017,02,11,01,40,1.40
2017,02,11,01,41,1.40
2017,02,11,01,42,1.40
2017,02,11,01,43,1.40
2017,02,11,01,44,1.50
2017,02,11,01,45,1.50
2017,02,11,01,46,1.60
2017,02,11,01,47,1.60
2017,02,11,01,48,1.60
2017,02,11,01,49,1.60
2017,02,11,01,50,1.60
2017,02,11,01,51,1.70
2017,02,11,01,52,1.70
2017,02,11,01,53,1.70
2017,02,11,01,54,1.70
2017,02,11,01,55,1.70
2017,02,11,01,56,1.70
2017,02,11,01,57,1.60
2017,02,11,01,58,1.60
2017,02,11,01,59,1.50
2017,02,11,02,00,1.40
2017,02,11,02,01,1.40
2017,02,11,02,02,1.40
2017,02,11,02,03,1.30
2017,02,11,02,04,1.30
2017,02,11,02,05,1.30
2017,02,11,02,06,1.30
2017,02,11,02,07,1.30
2017,02,11,02,08,1.30
2017,02,11,02,09,1.30
2017,02,11,02,10,1.40
2017,02,11,02,11,1.40
2017,02,11,02,12,1.50
2017,02,11,02,13,1.50
2017,02,11,02,14,1.50
2017,02,11,02,15,1.50
2017,02,11,02,16,1.50
2017,02,11,02,17,1.40
2017,02,11,02,18,1.40
2017,02,11,02,19,1.50
2017,02,11,02,20,1.50
2017,02,11,02,21,1.60
2017,02,11,02,22,1.60
2017,02,11,02,23,1.60
2017,02,11,02,24,1.60
2017,02,11,02,25,1.60
2017,02,11,02,26,1.60
2017,02,11,02,27,1.50
2017,02,11,02,28,1.50
2017,02,11,02,29,1.40
2017,02,11,02,30,1.40
2017,02,11,02,31,1.40
2017,02,11,02,32,1.40
2017,02,11,02,33,1.40
2017,02,11,02,34,1.40
2017,02,11,02,35,1.40
2017,02,11,02,36,1.30
2017,02,11,02,37,1.30
2017,02,11,02,38,1.30
2017,02,11,02,39,1.30
2017,02,11,02,40,1.30
2017,02,11,02,41,1.30
2017,02,11,02,42,1.30
2017,02,11,02,43,1.30
2017,02,11,02,44,1.30
2017,02,11,02,45,1.30
2017,02,11,02,46,1.20
2017,02,11,02,47,1.20
2017,02,11,02,48,1.20
2017,02,11,02,49,1.20
2017,02,11,02,50,1.20
2017,02,11,02,51,1.20
2017,02,11,02,52,1.20
2017,02,11,02,53,1.30
2017,02,11,02,54,1.30
2017,02,11,02,55,1.30
2017,02,11,02,56,1.30
2017,02,11,02,57,1.30
2017,02,11,02,58,1.30
2017,02,11,02,59,1.30
2017,02,11,03,00,1.20
2017,02,11,03,01,1.20
2017,02,11,03,02,1.20
2017,02,11,03,03,1.20
2017,02,11,03,04,1.20
2017,02,11,03,05,1.20
2017,02,11,03,06,1.20
2017,02,11,03,07,1.20
2017,02,11,03,08,1.20
2017,02,11,03,09,1.20
2017,02,11,03,10,1.20
2017,02,11,03,11,1.20
2017,02,11,03,12,1.30
2017,02,11,03,13,1.30
2017,02,11,03,14,1.30
2017,02,11,03,15,1.30
2017,02,11,03,16,1.30
2017,02,11,03,17,1.30
2017,02,11,03,18,1.30
2017,02,11,03,19,1.30
2017,02,11,03,20,1.20
2017,02,11,03,21,1.20
2017,02,11,03,22,1.20
2017,02,11,03,23,1.20
2017,02,11,03,24,1.20
2017,02,11,03,25,1.20
2017,02,11,03,26,1.20
2017,02,11,03,27,1.20
2017,02,11,03,28,1.20
2017,02,11,03,29,1.10
2017,02,11,03,30,1.10
2017,02,11,03,31,1.10
2017,02,11,03,32,1.10
2017,02,11,03,33,1.20
2017,02,11,03,34,1.20
2017,02,11,03,35,1.20
2017,02,11,03,36,1.20
2017,02,11,03,37,1.20
2017,02,11,03,38,1.20
2017,02,11,03,39,1.20
2017,02,11,03,40,1.20
2017,02,11,03,41,1.20
2017,02,11,03,42,1.20
2017,02,11,03,43,1.10
2017,02,11,03,44,1.00
2017,02,11,03,45,1.00
2017,02,11,03,46,0.90
2017,02,11,03,47,0.90
2017,02,11,03,48,0.90
2017,02,11,03,49,1.00
2017,02,11,03,50,1.10
2017,02,11,03,51,1.10
2017,02,11,03,52,1.20
2017,02,11,03,53,1.30
2017,02,11,03,54,1.40
2017,02,11,03,55,1.50
2017,02,11,03,56,1.50
2017,02,11,03,57,1.60
2017,02,11,03,58,1.60
2017,02,11,03,59,1.60
2017,02,11,04,00,1.60
2017,02,11,04,01,1.50
2017,02,11,04,02,1.50
2017,02,11,04,03,1.50
2017,02,11,04,04,1.50
2017,02,11,04,05,1.50
2017,02,11,04,06,1.40
2017,02,11,04,07,1.40
2017,02,11,04,08,1.40
2017,02,11,04,09,1.40
2017,02,11,04,10,1.40
2017,02,11,04,11,1.40
2017,02,11,04,12,1.40
2017,02,11,04,13,1.40
2017,02,11,04,14,1.30
2017,02,11,04,15,1.30
2017,02,11,04,16,1.30
2017,02,11,04,17,1.30
2017,02,11,04,18,1.30
2017,02,11,04,19,1.40
2017,02,11,04,20,1.40
2017,02,11,04,21,1.40
2017,02,11,04,22,1.40
2017,02,11,04,23,1.40
2017,02,11,04,24,1.50
2017,02,11,04,25,1.50
2017,02,11,04,26,1.60
2017,02,11,04,27,1.60
2017,02,11,04,28,1.70
2017,02,11,04,29,1.70
2017,02,11,04,30,1.70
2017,02,11,04,31,1.70
2017,02,11,04,32,1.70
2017,02,11,04,33,1.70
2017,02,11,04,34,1.70
2017,02,11,04,35,1.70
2017,02,11,04,36,1.70
2017,02,11,04,37,1.60
2017,02,11,04,38,1.60
2017,02,11,04,39,1.60
2017,02,11,04,40,1.50
2017,02,11,04,41,1.40
2017,02,11,04,42,1.40
2017,02,11,04,43,1.30
2017,02,11,04,44,1.30
2017,02,11,04,45,1.30
2017,02,11,04,46,1.30
2017,02,11,04,47,1.30
2017,02,11,04,48,1.20
2017,02,11,04,49,1.20
2017,02,11,04,50,1.10
2017,02,11,04,51,1.00
2017,02,11,04,52,0.90
2017,02,11,04,53,0.90
2017,02,11,04,54,0.80
2017,02,11,04,55,0.80
2017,02,11,04,56,0.70
2017,02,11,04,57,0.70
2017,02,11,04,58,0.70
2017,02,11,04,59,0.70
2017,02,11,05,00,0.80
2017,02,11,05,01,0.80
2017,02,11,05,02,0.80
2017,02,11,05,03,0.80
2017,02,11,05,04,0.80
2017,02,11,05,05,0.80
2017,02,11,05,06,0.80
2017,02,11,05,07,0.80
2017,02,11,05,08,0.80
2017,02,11,05,09,0.80
2017,02,11,05,10,0.80
2017,02,11,05,11,0.70
2017,02,11,05,12,0.70
2017,02,11,05,13,0.70
2017,02,11,05,14,0.60
2017,02,11,05,15,0.60
2017,02,11,05,16,0.60
2017,02,11,05,17,0.60
2017,02,11,05,18,0.60
2017,02,11,05,19,0.60
2017,02,11,05,20,0.60
2017,02,11,05,21,0.60
2017,02,11,05,22,0.60
2017,02,11,05,23,0.60
2017,02,11,05,24,0.70
2017,02,11,05,25,0.80
2017,02,11,05,26,0.90
2017,02,11,05,27,1.00
2017,02,11,05,28,1.10
2017,02,11,05,29,1.10
2017,02,11,05,30,1.10
2017,02,11,05,31,1.10
2017,02,11,05,32,1.20
2017,02,11,05,33,1.20
2017,02,11,05,34,1.20
2017,02,11,05,35,1.20
2017,02,11,05,36,1.30
2017,02,11,05,37,1.20
2017,02,11,05,38,1.20
2017,02,11,05,39,1.20
2017,02,11,05,40,1.10
2017,02,11,05,41,1.10
2017,02,11,05,42,1.20
2017,02,11,05,43,1.20
2017,02,11,05,44,1.20
2017,02,11,05,45,1.20
2017,02,11,05,46,1.20
2017,02,11,05,47,1.30
2017,02,11,05,48,1.30
2017,02,11,05,49,1.30
2017,02,11,05,50,1.20
2017,02,11,05,51,1.20
2017,02,11,05,52,1.10
2017,02,11,05,53,1.10
2017,02,11,05,54,1.00
2017,02,11,05,55,1.00
2017,02,11,05,56,0.90
2017,02,11,05,57,0.80
2017,02,11,05,58,0.80
2017,02,11,05,59,0.80
2017,02,11,06,00,0.70
2017,02,11,06,01,0.80
2017,02,11,06,02,0.80
2017,02,11,06,03,0.90
2017,02,11,06,04,0.90
2017,02,11,06,05,1.00
2017,02,11,06,06,1.00
2017,02,11,06,07,1.10
2017,02,11,06,08,1.10
2017,02,11,06,09,1.10
2017,02,11,06,10,1.10
2017,02,11,06,11,1.10
2017,02,11,06,12,1.10
2017,02,11,06,13,1.10
2017,02,11,06,14,1.10
2017,02,11,06,15,1.10
2017,02,11,06,16,1.00
2017,02,11,06,17,1.00
2017,02,11,06,18,0.90
2017,02,11,06,19,0.90
2017,02,11,06,20,0.90
2017,02,11,06,21,0.90
2017,02,11,06,22,0.90
2017,02,11,06,23,0.90
2017,02,11,06,24,0.90
2017,02,11,06,25,0.90
2017,02,11,06,26,0.90
2017,02,11,06,27,0.90
2017,02,11,06,28,0.90
2017,02,11,06,29,1.00
2017,02,11,06,30,1.00
2017,02,11,06,31,1.10
2017,02,11,06,32,1.10
2017,02,11,06,33,1.20
2017,02,11,06,34,1.20
2017,02,11,06,35,1.30
2017,02,11,06,36,1.30
2017,02,11,06,37,1.40
2017,02,11,06,38,1.40
2017,02,11,06,39,1.50
2017,02,11,06,40,1.50
2017,02,11,06,41,1.60
2017,02,11,06,42,1.60
2017,02,11,06,43,1.70
2017,02,11,06,44,1.70
2017,02,11,06,45,1.70
2017,02,11,06,46,1.70
2017,02,11,06,47,1.70
2017,02,11,06,48,1.70
2017,02,11,06,49,1.60
2017,02,11,06,50,1.50
2017,02,11,06,51,1.30
2017,02,11,06,52,1.30
2017,02,11,06,53,1.20
2017,02,11,06,54,1.20
2017,02,11,06,55,1.20
2017,02,11,06,56,1.20
2017,02,11,06,57,1.20
2017,02,11,06,58,1.20
2017,02,11,06,59,1.20
2017,02,11,07,00,1.20
2017,02,11,07,01,1.20
2017,02,11,07,02,1.20
2017,02,11,07,03,1.20
2017,02,11,07,04,1.20
2017,02,11,07,05,1.20
2017,02,11,07,06,1.20
2017,02,11,07,07,1.20
2017,02,11,07,08,1.30
2017,02,11,07,09,1.30
2017,02,11,07,10,1.30
2017,02,11,07,11,1.40
2017,02,11,07,12,1.40
2017,02,11,07,13,1.40
2017,02,11,07,14,1.40
2017,02,11,07,15,1.40
2017,02,11,07,16,1.40
2017,02,11,07,17,1.40
2017,02,11,07,18,1.40
2017,02,11,07,19,1.40
2017,02,11,07,20,1.40
2017,02,11,07,21,1.40
2017,02,11,07,22,1.30
2017,02,11,07,23,1.30
2017,02,11,07,24,1.30
2017,02,11,07,25,1.20
2017,02,11,07,26,1.20
2017,02,11,07,27,1.20
2017,02,11,07,28,1.20
2017,02,11,07,29,1.20
2017,02,11,07,30,1.20
2017,02,11,07,31,1.20
2017,02,11,07,32,1.20
2017,02,11,07,33,1.20
2017,02,11,07,34,1.30
2017,02,11,07,35,1.30
2017,02,11,07,36,1.30
2017,02,11,07,37,1.30
2017,02,11,07,38,1.30
2017,02,11,07,39,1.20
2017,02,11,07,40,1.20
2017,02,11,07,41,1.20
2017,02,11,07,42,1.20
2017,02,11,07,43,1.10
2017,02,11,07,44,1.10
2017,02,11,07,45,1.10
2017,02,11,07,46,1.10
2017,02,11,07,47,1.10
2017,02,11,07,48,1.10
2017,02,11,07,49,1.10
2017,02,11,07,50,1.10
2017,02,11,07,51,1.10
2017,02,11,07,52,1.10
2017,02,11,07,53,1.10
2017,02,11,07,54,1.10
2017,02,11,07,55,1.20
2017,02,11,07,56,1.20
2017,02,11,07,57,1.30
2017,02,11,07,58,1.30
2017,02,11,07,59,1.30
2017,02,11,08,00,1.30
2017,02,11,08,01,1.30
2017,02,11,08,02,1.30
2017,02,11,08,03,1.30
2017,02,11,08,04,1.30
2017,02,11,08,05,1.40
2017,02,11,08,06,1.50
2017,02,11,08,07,1.50
2017,02,11,08,08,1.60
2017,02,11,08,09,1.70
2017,02,11,08,10,1.70
2017,02,11,08,11,1.70
2017,02,11,08,12,1.70
2017,02,11,08,13,1.70
2017,02,11,08,14,1.70
2017,02,11,08,15,1.70
2017,02,11,08,16,1.80
2017,02,11,08,17,1.80
2017,02,11,08,18,1.80
2017,02,11,08,19,1.80
2017,02,11,08,20,1.90
2017,02,11,08,21,1.90
2017,02,11,08,22,2.00
2017,02,11,08,23,2.00
2017,02,11,08,24,2.10
2017,02,11,08,25,2.10
2017,02,11,08,26,2.10
2017,02,11,08,27,2.10
2017,02,11,08,28,2.10
2017,02,11,08,29,2.00
2017,02,11,08,30,2.00
2017,02,11,08,31,2.10
2017,02,11,08,32,2.10
2017,02,11,08,33,2.10
2017,02,11,08,34,2.00
2017,02,11,08,35,2.00
2017,02,11,08,36,1.90
2017,02,11,08,37,1.90
2017,02,11,08,38,1.80
2017,02,11,08,39,1.80
2017,02,11,08,40,1.80
2017,02,11,08,41,1.80
2017,02,11,08,42,1.80
2017,02,11,08,43,1.80
2017,02,11,08,44,1.80
2017,02,11,08,45,1.80
2017,02,11,08,46,1.80
2017,02,11,08,47,1.80
2017,02,11,08,48,1.80
2017,02,11,08,49,1.80
2017,02,11,08,50,1.80
2017,02,11,08,51,1.80
2017,02,11,08,52,1.80
2017,02,11,08,53,1.90
2017,02,11,08,54,1.90
2017,02,11,08,55,1.90
2017,02,11,08,56,1.90
2017,02,11,08,57,1.90
2017,02,11,08,58,2.00
2017,02,11,08,59,2.10
2017,02,11,09,00,2.10
2017,02,11,09,01,2.10
2017,02,11,09,02,2.10
2017,02,11,09,03,2.20
2017,02,11,09,04,2.20
2017,02,11,09,05,2.20
2017,02,11,09,06,2.20
2017,02,11,09,07,2.30
2017,02,11,09,08,2.30
2017,02,11,09,09,2.40
2017,02,11,09,10,2.40
2017,02,11,09,11,2.40
2017,02,11,09,12,2.40
2017,02,11,09,13,2.50
2017,02,11,09,14,2.50
2017,02,11,09,15,2.50
2017,02,11,09,16,2.60
2017,02,11,09,17,2.60
2017,02,11,09,18,2.60
2017,02,11,09,19,2.70
2017,02,11,09,20,2.70
2017,02,11,09,21,2.70
2017,02,11,09,22,2.70
2017,02,11,09,23,2.70
2017,02,11,09,24,2.80
2017,02,11,09,25,2.80
2017,02,11,09,26,2.90
2017,02,11,09,27,2.90
2017,02,11,09,28,3.00
2017,02,11,09,29,3.00
2017,02,11,09,30,3.10
2017,02,11,09,31,3.10
2017,02,11,09,32,3.10
2017,02,11,09,33,3.10
2017,02,11,09,34,3.10
2017,02,11,09,35,3.20
2017,02,11,09,36,3.20
2017,02,11,09,37,3.20
2017,02,11,09,38,3.20
2017,02,11,09,39,3.20
2017,02,11,09,40,3.20
2017,02,11,09,41,3.20
2017,02,11,09,42,3.30
2017,02,11,09,43,3.30
2017,02,11,09,44,3.30
2017,02,11,09,45,3.30
2017,02,11,09,46,3.40
2017,02,11,09,47,3.40
2017,02,11,09,48,3.40
2017,02,11,09,49,3.40
2017,02,11,09,50,3.40
2017,02,11,09,51,3.40
2017,02,11,09,52,3.50
2017,02,11,09,53,3.50
2017,02,11,09,54,3.50
2017,02,11,09,55,3.50
2017,02,11,09,56,3.60
2017,02,11,09,57,3.60
2017,02,11,09,58,3.60
2017,02,11,09,59,3.50
2017,02,11,10,00,3.50
2017,02,11,10,01,3.40
2017,02,11,10,02,3.40
2017,02,11,10,03,3.40
2017,02,11,10,04,3.40
2017,02,11,10,05,3.40
2017,02,11,10,06,3.40
2017,02,11,10,07,3.40
2017,02,11,10,08,3.40
2017,02,11,10,09,3.40
2017,02,11,10,10,3.30
2017,02,11,10,11,3.30
2017,02,11,10,12,3.30
2017,02,11,10,13,3.30
2017,02,11,10,14,3.30
2017,02,11,10,15,3.20
2017,02,11,10,16,3.20
2017,02,11,10,17,3.20
2017,02,11,10,18,3.20
2017,02,11,10,19,3.20
2017,02,11,10,20,3.20
2017,02,11,10,21,3.20
2017,02,11,10,22,3.20
2017,02,11,10,23,3.20
2017,02,11,10,24,3.30
2017,02,11,10,25,3.30
2017,02,11,10,26,3.30
2017,02,11,10,27,3.30
2017,02,11,10,28,3.30
2017,02,11,10,29,3.40
2017,02,11,10,30,3.40
2017,02,11,10,31,3.40
2017,02,11,10,32,3.40
2017,02,11,10,33,3.50
2017,02,11,10,34,3.50
2017,02,11,10,35,3.60
2017,02,11,10,36,3.60
2017,02,11,10,37,3.60
2017,02,11,10,38,3.70
2017,02,11,10,39,3.70
2017,02,11,10,40,3.70
2017,02,11,10,41,3.70
2017,02,11,10,42,3.70
2017,02,11,10,43,3.70
2017,02,11,10,44,3.70
2017,02,11,10,45,3.70
2017,02,11,10,46,3.70
2017,02,11,10,47,3.70
2017,02,11,10,48,3.80
2017,02,11,10,49,3.80
2017,02,11,10,50,3.80
2017,02,11,10,51,3.80
2017,02,11,10,52,3.80
2017,02,11,10,53,3.90
2017,02,11,10,54,3.90
2017,02,11,10,55,3.90
2017,02,11,10,56,3.90
2017,02,11,10,57,4.00
2017,02,11,10,58,4.00
2017,02,11,10,59,4.00
2017,02,11,11,00,4.00
2017,02,11,11,01,4.00
2017,02,11,11,02,4.00
2017,02,11,11,03,4.00
2017,02,11,11,04,4.00
2017,02,11,11,05,4.00
2017,02,11,11,06,4.00
2017,02,11,11,07,4.00
2017,02,11,11,08,4.10
2017,02,11,11,09,4.10
2017,02,11,11,10,4.10
2017,02,11,11,11,4.10
2017,02,11,11,12,4.10
2017,02,11,11,13,4.20
2017,02,11,11,14,4.20
2017,02,11,11,15,4.20
2017,02,11,11,16,4.20
2017,02,11,11,17,4.30
2017,02,11,11,18,4.30
2017,02,11,11,19,4.30
2017,02,11,11,20,4.30
2017,02,11,11,21,4.30
2017,02,11,11,22,4.30
2017,02,11,11,23,4.40
2017,02,11,11,24,4.40
2017,02,11,11,25,4.40
2017,02,11,11,26,4.50
2017,02,11,11,27,4.50
2017,02,11,11,28,4.50
2017,02,11,11,29,4.60
2017,02,11,11,30,4.60
2017,02,11,11,31,4.60
2017,02,11,11,32,4.70
2017,02,11,11,33,4.70
2017,02,11,11,34,4.70
2017,02,11,11,35,4.80
2017,02,11,11,36,4.80
2017,02,11,11,37,4.80
2017,02,11,11,38,4.80
2017,02,11,11,39,4.80
2017,02,11,11,40,4.80
2017,02,11,11,41,4.70
2017,02,11,11,42,4.70
2017,02,11,11,43,4.70
2017,02,11,11,44,4.70
2017,02,11,11,45,4.70
2017,02,11,11,46,4.70
2017,02,11,11,47,4.70
2017,02,11,11,48,4.70
2017,02,11,11,49,4.70
2017,02,11,11,50,4.70
2017,02,11,11,51,4.70
2017,02,11,11,52,4.70
2017,02,11,11,53,4.70
2017,02,11,11,54,4.70
2017,02,11,11,55,4.80
2017,02,11,11,56,4.80
2017,02,11,11,57,4.80
2017,02,11,11,58,4.70
2017,02,11,11,59,4.70
2017,02,11,12,00,4.70
2017,02,11,12,01,4.70
2017,02,11,12,02,4.70
2017,02,11,12,03,4.70
2017,02,11,12,04,4.70
2017,02,11,12,05,4.80
2017,02,11,12,06,4.80
2017,02,11,12,07,4.80
2017,02,11,12,08,4.80
2017,02,11,12,09,4.80
2017,02,11,12,10,4.90
2017,02,11,12,11,4.90
2017,02,11,12,12,4.90
2017,02,11,12,13,4.90
2017,02,11,12,14,4.90
2017,02,11,12,15,4.90
2017,02,11,12,16,4.90
2017,02,11,12,17,4.90
2017,02,11,12,18,5.00
2017,02,11,12,19,5.00
2017,02,11,12,20,5.00
2017,02,11,12,21,4.90
2017,02,11,12,22,4.90
2017,02,11,12,23,4.90
2017,02,11,12,24,5.00
2017,02,11,12,25,5.00
2017,02,11,12,26,5.00
2017,02,11,12,27,5.00
2017,02,11,12,28,5.00
2017,02,11,12,29,4.90
2017,02,11,12,30,4.90
2017,02,11,12,31,4.90
2017,02,11,12,32,4.90
2017,02,11,12,33,4.90
2017,02,11,12,34,4.90
2017,02,11,12,35,4.90
2017,02,11,12,36,4.90
2017,02,11,12,37,4.90
2017,02,11,12,38,4.90
2017,02,11,12,39,4.90
2017,02,11,12,40,4.90
2017,02,11,12,41,5.00
2017,02,11,12,42,5.00
2017,02,11,12,43,5.00
2017,02,11,12,44,5.00
2017,02,11,12,45,5.00
2017,02,11,12,46,5.10
2017,02,11,12,47,5.10
2017,02,11,12,48,5.10
2017,02,11,12,49,5.10
2017,02,11,12,50,5.20
2017,02,11,12,51,5.20
2017,02,11,12,52,5.20
2017,02,11,12,53,5.20
2017,02,11,12,54,5.20
2017,02,11,12,55,5.30
2017,02,11,12,56,5.30
2017,02,11,12,57,5.30
2017,02,11,12,58,5.30
2017,02,11,12,59,5.30
2017,02,11,13,00,5.30
2017,02,11,13,01,5.30
2017,02,11,13,02,5.40
2017,02,11,13,03,5.40
2017,02,11,13,04,5.30
2017,02,11,13,05,5.30
2017,02,11,13,06,5.30
2017,02,11,13,07,5.30
2017,02,11,13,08,5.30
2017,02,11,13,09,5.30
2017,02,11,13,10,5.30
2017,02,11,13,11,5.30
2017,02,11,13,12,5.30
2017,02,11,13,13,5.30
2017,02,11,13,14,5.30
2017,02,11,13,15,5.30
2017,02,11,13,16,5.40
2017,02,11,13,17,5.40
2017,02,11,13,18,5.40
2017,02,11,13,19,5.40
2017,02,11,13,20,5.40
2017,02,11,13,21,5.40
2017,02,11,13,22,5.40
2017,02,11,13,23,5.40
2017,02,11,13,24,5.40
2017,02,11,13,25,5.40
2017,02,11,13,26,5.40
2017,02,11,13,27,5.40
2017,02,11,13,28,5.40
2017,02,11,13,29,5.40
2017,02,11,13,30,5.40
2017,02,11,13,31,5.40
2017,02,11,13,32,5.40
2017,02,11,13,33,5.40
2017,02,11,13,34,5.40
2017,02,11,13,35,5.50
2017,02,11,13,36,5.50
2017,02,11,13,37,5.50
2017,02,11,13,38,5.60
2017,02,11,13,39,5.60
2017,02,11,13,40,5.60
2017,02,11,13,41,5.70
2017,02,11,13,42,5.70
2017,02,11,13,43,5.70
2017,02,11,13,44,5.70
2017,02,11,13,45,5.70
2017,02,11,13,46,5.70
2017,02,11,13,47,5.80
2017,02,11,13,48,5.80
2017,02,11,13,49,5.80
2017,02,11,13,50,5.80
2017,02,11,13,51,5.80
2017,02,11,13,52,5.90
2017,02,11,13,53,5.90
2017,02,11,13,54,5.90
2017,02,11,13,55,5.90
2017,02,11,13,56,5.90
2017,02,11,13,57,5.90
2017,02,11,13,58,6.00
2017,02,11,13,59,6.00
2017,02,11,14,00,6.00
2017,02,11,14,01,6.00
2017,02,11,14,02,6.00
2017,02,11,14,03,6.00
2017,02,11,14,04,6.00
2017,02,11,14,05,6.00
2017,02,11,14,06,6.00
2017,02,11,14,07,6.00
2017,02,11,14,08,6.00
2017,02,11,14,09,6.00
2017,02,11,14,10,6.10
2017,02,11,14,11,6.10
2017,02,11,14,12,6.10
2017,02,11,14,13,6.10
2017,02,11,14,14,6.10
2017,02,11,14,15,6.10
2017,02,11,14,16,6.10
2017,02,11,14,17,6.10
2017,02,11,14,18,6.10
2017,02,11,14,19,6.10
2017,02,11,14,20,6.10
2017,02,11,14,21,6.10
2017,02,11,14,22,6.10
2017,02,11,14,23,6.20
2017,02,11,14,24,6.20
2017,02,11,14,25,6.20
2017,02,11,14,26,6.30
2017,02,11,14,27,6.30
2017,02,11,14,28,6.30
2017,02,11,14,29,6.40
2017,02,11,14,30,6.50
2017,02,11,14,31,6.50
2017,02,11,14,32,6.60
2017,02,11,14,33,6.60
2017,02,11,14,34,6.60
2017,02,11,14,35,6.60
2017,02,11,14,36,6.70
2017,02,11,14,37,6.70
2017,02,11,14,38,6.70
2017,02,11,14,39,6.70
2017,02,11,14,40,6.60
2017,02,11,14,41,6.60
2017,02,11,14,42,6.60
2017,02,11,14,43,6.60
2017,02,11,14,44,6.60
2017,02,11,14,45,6.60
2017,02,11,14,46,6.60
2017,02,11,14,47,6.60
2017,02,11,14,48,6.60
2017,02,11,14,49,6.60
2017,02,11,14,50,6.60
2017,02,11,14,51,6.60
2017,02,11,14,52,6.60
2017,02,11,14,53,6.60
2017,02,11,14,54,6.60
2017,02,11,14,55,6.60
2017,02,11,14,56,6.60
2017,02,11,14,57,6.60
2017,02,11,14,58,6.60
2017,02,11,14,59,6.60
2017,02,11,15,00,6.50
2017,02,11,15,01,6.50
2017,02,11,15,02,6.50
2017,02,11,15,03,6.50
2017,02,11,15,04,6.40
2017,02,11,15,05,6.40
2017,02,11,15,06,6.40
2017,02,11,15,07,6.40
2017,02,11,15,08,6.40
2017,02,11,15,09,6.40
2017,02,11,15,10,6.50
2017,02,11,15,11,6.50
2017,02,11,15,12,6.50
2017,02,11,15,13,6.50
2017,02,11,15,14,6.40
2017,02,11,15,15,6.40
2017,02,11,15,16,6.40
2017,02,11,15,17,6.40
2017,02,11,15,18,6.30
2017,02,11,15,19,6.30
2017,02,11,15,20,6.30
2017,02,11,15,21,6.30
2017,02,11,15,22,6.30
2017,02,11,15,23,6.20
2017,02,11,15,24,6.20
2017,02,11,15,25,6.20
2017,02,11,15,26,6.20
2017,02,11,15,27,6.20
2017,02,11,15,28,6.20
2017,02,11,15,29,6.10
2017,02,11,15,30,6.10
2017,02,11,15,31,6.10
2017,02,11,15,32,6.10
2017,02,11,15,33,6.10
2017,02,11,15,34,6.10
2017,02,11,15,35,6.10
2017,02,11,15,36,6.00
2017,02,11,15,37,6.00
2017,02,11,15,38,6.00
2017,02,11,15,39,6.00
2017,02,11,15,40,6.00
2017,02,11,15,41,6.00
2017,02,11,15,42,6.00
2017,02,11,15,43,6.00
2017,02,11,15,44,6.00
2017,02,11,15,45,5.90
2017,02,11,15,46,5.90
2017,02,11,15,47,5.90
2017,02,11,15,48,5.90
2017,02,11,15,49,5.90
2017,02,11,15,50,5.90
2017,02,11,15,51,5.90
2017,02,11,15,52,5.90
2017,02,11,15,53,5.80
2017,02,11,15,54,5.80
2017,02,11,15,55,5.80
2017,02,11,15,56,5.80
2017,02,11,15,57,5.80
2017,02,11,15,58,5.80
2017,02,11,15,59,5.80
2017,02,11,16,00,5.80
2017,02,11,16,01,5.80
2017,02,11,16,02,5.80
2017,02,11,16,03,5.80
2017,02,11,16,04,5.80
2017,02,11,16,05,5.80
2017,02,11,16,06,5.80
2017,02,11,16,07,5.80
2017,02,11,16,08,5.80
2017,02,11,16,09,5.80
2017,02,11,16,10,5.80
2017,02,11,16,11,5.80
2017,02,11,16,12,5.80
2017,02,11,16,13,5.80
2017,02,11,16,14,5.80
2017,02,11,16,15,5.70
2017,02,11,16,16,5.70
2017,02,11,16,17,5.70
2017,02,11,16,18,5.70
2017,02,11,16,19,5.70
2017,02,11,16,20,5.70
2017,02,11,16,21,5.70
2017,02,11,16,22,5.70
2017,02,11,16,23,5.70
2017,02,11,16,24,5.70
2017,02,11,16,25,5.70
2017,02,11,16,26,5.70
2017,02,11,16,27,5.70
2017,02,11,16,28,5.70
2017,02,11,16,29,5.70
2017,02,11,16,30,5.70
2017,02,11,16,31,5.70
2017,02,11,16,32,5.60
2017,02,11,16,33,5.60
2017,02,11,16,34,5.50
2017,02,11,16,35,5.50
2017,02,11,16,36,5.40
2017,02,11,16,37,5.40
2017,02,11,16,38,5.30
2017,02,11,16,39,5.30
2017,02,11,16,40,5.30
2017,02,11,16,41,5.20
2017,02,11,16,42,5.20
2017,02,11,16,43,5.20
2017,02,11,16,44,5.10
2017,02,11,16,45,5.10
2017,02,11,16,46,5.10
2017,02,11,16,47,5.00
2017,02,11,16,48,5.00
2017,02,11,16,49,5.00
2017,02,11,16,50,5.00
2017,02,11,16,51,4.90
2017,02,11,16,52,4.90
2017,02,11,16,53,4.80
2017,02,11,16,54,4.80
2017,02,11,16,55,4.80
2017,02,11,16,56,4.80
2017,02,11,16,57,4.80
2017,02,11,16,58,4.70
2017,02,11,16,59,4.70
2017,02,11,17,00,4.70
2017,02,11,17,01,4.70
2017,02,11,17,02,4.70
2017,02,11,17,03,4.70
2017,02,11,17,04,4.70
2017,02,11,17,05,4.70
2017,02,11,17,06,4.70
2017,02,11,17,07,4.70
2017,02,11,17,08,4.70
2017,02,11,17,09,4.70
2017,02,11,17,10,4.70
2017,02,11,17,11,4.60
2017,02,11,17,12,4.60
2017,02,11,17,13,4.60
2017,02,11,17,14,4.60
2017,02,11,17,15,4.60
2017,02,11,17,16,4.50
2017,02,11,17,17,4.50
2017,02,11,17,18,4.50
2017,02,11,17,19,4.50
2017,02,11,17,20,4.50
2017,02,11,17,21,4.50
2017,02,11,17,22,4.50
2017,02,11,17,23,4.50
2017,02,11,17,24,4.50
2017,02,11,17,25,4.50
2017,02,11,17,26,4.50
2017,02,11,17,27,4.60
2017,02,11,17,28,4.60
2017,02,11,17,29,4.60
2017,02,11,17,30,4.60
2017,02,11,17,31,4.60
2017,02,11,17,32,4.50
2017,02,11,17,33,4.50
2017,02,11,17,34,4.50
2017,02,11,17,35,4.50
2017,02,11,17,36,4.50
2017,02,11,17,37,4.50
2017,02,11,17,38,4.50
2017,02,11,17,39,4.50
2017,02,11,17,40,4.40
2017,02,11,17,41,4.40
2017,02,11,17,42,4.40
2017,02,11,17,43,4.40
2017,02,11,17,44,4.30
2017,02,11,17,45,4.30
2017,02,11,17,46,4.30
2017,02,11,17,47,4.30
2017,02,11,17,48,4.30
2017,02,11,17,49,4.30
2017,02,11,17,50,4.30
2017,02,11,17,51,4.30
2017,02,11,17,52,4.20
2017,02,11,17,53,4.20
2017,02,11,17,54,4.20
2017,02,11,17,55,4.20
2017,02,11,17,56,4.20
2017,02,11,17,57,4.20
2017,02,11,17,58,4.20
2017,02,11,17,59,4.20
2017,02,11,18,00,4.10
2017,02,11,18,01,4.10
2017,02,11,18,02,4.10
2017,02,11,18,03,4.10
2017,02,11,18,04,4.00
2017,02,11,18,05,4.00
2017,02,11,18,06,3.90